Miscellaneous Local Product
Issued by NWS Hastings, NE

Home | Current Version | Previous Version | Graphics & Text | Print | Product List | Glossary On
Versions: 1 2 3 4 5 6 7 8 9 10 11 12 13 14 15 16 17 18 19 20 21 22 23 24 25 26 27 28 29 30 31 32 33 34 35 36 37 38 39 40 41 42 43 44 45 46 47 48 49 50
000
AXUS43 KGID 272202
MISGRI

GID CWA HOURLY WEATHER ROUNDUP
NATIONAL WEATHER SERVICE HASTINGS NE
500 PM CDT THU JUL 27 2017

NOTE: "FAIR" INDICATES FEW OR NO CLOUDS BELOW 12,000 FEET WITH NO
SIGNIFICANT WEATHER AND/OR OBSTRUCTIONS TO VISIBILITY.

...SOUTH CENTRAL NEBRASKA...

CITY           SKY/WX    TMP DP  RH WIND       PRES   REMARKS
GRAND ISLAND   FAIR      81  63  54 NE8       30.07F
HASTINGS       FAIR      81  59  47 N5        30.07F
KEARNEY        FAIR      81  62  52 E7        30.08F
ORD            FAIR      82  57  42 NE7       30.06F
YORK           PTSUNNY   81  64  57 NE8       30.06F
AURORA         FAIR      80  63  56 NE6       30.06F
LEXINGTON      FAIR      82  58  45 E5        30.07F
HOLDREGE       FAIR      80  55  42 NE7       30.07F
HEBRON         FAIR      83  64  51 N6        30.03F

...NEBRASKA PANHANDLE...

CITY           SKY/WX    TMP DP  RH WIND       PRES   REMARKS
CHADRON        NOT AVBL
ALLIANCE       FAIR      83  61  47 SE20G28   30.08F
SCOTTSBLUFF    FAIR      86  66  51 E21       30.03F
SIDNEY         FAIR      88  60  38 S21       30.11F

...WESTERN AND NORTH CENTRAL NEBRASKA...

CITY           SKY/WX    TMP DP  RH WIND       PRES   REMARKS
VALENTINE      FAIR      84  50  30 SE10      30.09F
AINSWORTH      LGT RAIN  77  60  55 E5        30.11F
ONEILL         FAIR      79  60  52 E5        30.09F
BROKEN BOW     FAIR      82  56  40 NE7       30.08F
IMPERIAL       FAIR      84  60  44 S8        30.08F
NORTH PLATTE   FAIR      87  52  29 CALM      30.06F
MCCOOK         FAIR      87  59  38 E7        30.06F

...EASTERN NEBRASKA...

CITY           SKY/WX    TMP DP  RH WIND       PRES   REMARKS
NORFOLK        FAIR      82  59  45 NE9       30.06F
SO SIOUX CITY  FAIR      84  60  44 NE12      30.03F
TEKAMAH        FAIR      84  62  47 NE9       30.02F
COLUMBUS       FAIR      81  65  58 NE12      30.06F
ALBION         FAIR      82  64  53 NE9       30.08S
OMAHA EPPLEY   PTSUNNY   86  62  44 N6        30.01F
OFFUTT AFB     PTSUNNY   83  64  51 NE10      30.01F
MILLARD        FAIR      83  65  53 CALM      30.02F
LINCOLN        FAIR      82  64  54 NE10      30.03F
NEBRASKA CITY  FAIR      82  68  62 NE10      30.01F
BEATRICE       FAIR      83  65  55 NE8       30.02F
FALLS CITY     FAIR      84  69  60 N12       29.97F

...NORTHERN KANSAS...

CITY           SKY/WX    TMP DP  RH WIND       PRES   REMARKS
GOODLAND       FAIR      84  65  52 S9        30.10F
HILL CITY      PTSUNNY   87  64  46 E12       30.04F
NORTON         CLEAR     88  54  31 NE9       30.06
PHILLIPSBURG   SUNNY     88  61  40 N6G16     30.04F
SMITH CENTER     N/A     82  63  51 N10       30.04F
HAYS           CLOUDY    85  66  53 NE8       30.03F
RUSSELL        PTSUNNY   86  65  49 NE13      30.01S
CONCORDIA      FAIR      85  66  53 NE12      30.00F
SALINA         FAIR      88  67  49 NE10      29.98F HX  91
TOPEKA         FAIR      85  74  69 N9        29.95S HX  92



USA.gov is the U.S. government's official web portal to all federal, state and local government web resources and services.